Location: F?ge?el
(45.8833°N, 22.5833°E)
Time: 08:05:33
(UTC+00:00)

RESURS DK-1 - Pass Details

Date: 17 November 2025
Orbit: 524 x 534 km, 69.9° (Epoch: 13 December)

Event Time Altitude Azimuth Distance (km) Brightness Sun altitude
Rises 15:28:38 0° 339° (NNW) 2,696 5.8 -6.0°
Reaches altitude 10° 15:31:01 10° 350° (N) 1,801 4.8 -6.4°
Maximum altitude 15:34:38 32° 54° (NE) 942 3.0 -7.0°
Drops below altitude 10° 15:38:15 10° 119° (ESE) 1,789 4.5 -7.5°
Sets 15:40:35 0° 129° (SE) 2,674 5.5 -7.9°
